Powrót do katalogu

FENGYUN 1C DEB

AktywnySSO
NORAD 38819·DEBRIS·🇨🇳 China

Wystrzelony May 10, 1999 z Taiyuan Satellite Launch Center

Loading…

Następne Przeloty (najbliższe 24 godziny)

TLE

Starzejące sięSource: Space-Track

Epoka: Sep 4, 2026, 06:08 UTC

1 38819U 99025EVK 26247.25619169  .00000373  00000-0  18954-3 0  9997
2 38819  98.6353 238.3116 0080157 147.7790 225.8355 14.19828687672453

Śledź FENGYUN 1C DEB w czasie rzeczywistym z AllMySat

Download on the App Store